sat.trackr.live / text

‹ back to catalog

RIGIDSPHERE 2 (LCS 4)

NORAD 5398 · 1971-067E

PAYLOAD ACTIVE UNKNOWN

§ Identity

Operator
Country
US
Launch date
1971-08-07
Launch site
AFWTR
Launch vehicle
Mass (kg)
RCS (m²)
0.95

Purposes: military

External: N2YO · Heavens-Above · Gunter

§ Orbital elements

Epoch: 2026-09-13T03:40:38.290080Z

Period
100.14 min
Inclination
87.6217°
Eccentricity
0.0057684
Mean motion
14.37954778 rev/d
Perigee alt
724.1 km
Apogee alt
806.5 km
Semi-major
7,143.4 km
B*
1.3147e-4
RAAN
314.3955°
Arg perigee
302.0498°
Mean anomaly
57.5106°
Rev number
88,652

§ Raw data

RIGIDSPHERE 2 (LCS 4)1 05398U 71067E   26256.15322095  .00000422  00000+0  13147-3 0  99902 05398  87.6217 314.3955 0057684 302.0498  57.5106 14.37954778886522

JSON: /api/v1/satellites/5398 · /tle

For live sub-satellite position, see the globe view (requires WebGL).

§ Visibility from observer

Set your observer location to see the next 7 days of passes ≥ 10°. The values pass through the URL so the page stays shareable.

No JS? Fill the form by hand. The geolocation button needs JavaScript.